Location: Cambroso
(45.2833°N, 12.0850°E)
Time: 11:11:49
(UTC+00:00)

H-2A R/B - Pass Details

Date: 21 January 2021
Orbit: 577 x 655 km, 98.5° (Epoch: 28 February)

Event Time Altitude Azimuth Distance (km) Brightness Sun altitude
Rises 17:08:12 0° 9° (N) 2,973 5.3 -11.4°
Reaches altitude 10° 17:10:29 10° 4° (N) 2,050 4.5 -11.7°
Maximum altitude 17:14:47 50° 290° (WNW) 810 3.0 -12.5°
Drops below altitude 10° 17:18:59 10° 215° (SW) 1,992 5.4 -13.2°
Sets 17:21:11 0° 210° (SSW) 2,880 6.2 -13.6°
